Wind_Speed
35 36 38 39 39 40 41 41 41 40 40 41 41 41 43 44 45 44 46 47 47 47 47 48 48 47 46 45 43 41 39 36 34 32 32 31 30 30
35 36 37 39 40 40 41 42 42 42 41 42 41 42 43 44 45 45 45 46 47 46 47 48 49 49 48 46 44 43 40 38 36 34 32 32 31 30
36 36 37 38 38 40 41 42 43 43 43 43 43 43 43 43 44 45 46 46 46 46 47 48 49 50 50 48 46 44 42 40 37 35 33 32 31 30
36 36 36 37 37 39 40 41 42 43 44 44 45 45 45 44 44 45 46 47 45 46 47 49 49 50 50 49 48 45 44 42 40 37 35 34 32 31
35 35 35 35 36 37 39 40 41 43 43 44 46 46 46 45 45 45 46 46 45 46 47 49 50 50 50 50 50 47 46 44 41 39 37 35 33 32
35 34 34 34 35 36 37 39 40 42 43 44 45 47 46 46 46 46 46 46 46 45 46 48 50 51 51 51 50 48 47 44 42 40 38 36 34 33
35 34 34 34 34 35 36 37 39 40 42 44 45 46 48 47 47 46 46 46 46 46 46 47 48 50 52 52 52 50 48 46 43 41 39 37 35 33
34 34 34 33 34 35 36 37 39 40 42 44 45 47 48 48 48 48 46 45 44 45 45 46 47 49 51 53 52 51 49 47 44 42 40 38 36 34
33 33 33 33 33 34 35 37 38 40 42 44 45 47 49 50 50 50 49 47 45 44 45 46 46 47 49 51 53 52 51 48 46 44 41 39 37 35
32 32 32 33 33 33 34 35 37 39 41 43 45 47 50 51 51 51 50 49 46 45 45 45 45 46 48 50 52 52 51 48 47 44 42 40 37 35
32 31 31 32 32 32 33 34 36 39 42 44 45 48 50 51 52 52 51 51 48 46 45 44 45 45 46 47 49 51 49 47 46 44 42 40 38 36
31 31 31 31 32 32 33 34 35 38 41 44 46 47 50 52 53 53 53 52 51 49 48 45 44 43 44 47 48 51 51 49 46 45 43 41 39 37
31 31 31 30 31 32 33 34 35 36 38 42 45 47 49 51 53 54 54 55 53 51 49 47 45 44 44 47 49 51 51 50 48 46 44 42 40 38
30 30 30 30 30 30 31 32 34 35 36 39 42 46 48 50 52 54 55 56 56 53 50 48 46 45 45 47 48 49 49 49 49 47 45 43 41 39
29 29 29 29 28 28 28 29 30 32 34 36 39 43 47 50 51 53 55 58 58 57 53 50 48 45 45 47 49 49 50 50 50 48 46 44 43 40
28 28 28 27 27 27 27 27 28 29 32 34 37 40 45 49 50 53 55 57 58 58 56 53 50 48 46 46 49 49 50 50 49 48 47 46 44 41
28 27 27 26 26 25 25 25 26 27 29 32 36 38 42 46 50 52 54 57 58 59 59 56 53 50 49 48 49 50 51 51 50 49 48 47 44 42
27 26 25 24 24 23 24 23 24 25 26 28 32 35 39 43 48 52 54 56 57 58 59 58 57 55 52 51 51 51 51 51 51 51 49 47 45 42
25 25 24 23 23 22 22 22 22 22 23 25 28 31 35 39 45 50 53 54 56 57 58 59 58 57 54 52 52 51 51 51 51 51 50 48 45 43
24 24 23 22 20 20 20 20 20 20 20 21 24 27 31 36 42 47 51 52 54 56 57 59 58 56 54 54 54 53 53 52 52 51 50 49 47 45
24 23 22 20 19 18 18 18 17 17 18 18 20 23 27 32 38 43 48 51 53 55 57 57 57 56 55 56 56 55 55 55 53 53 51 50 48 46
23 21 20 18 18 17 17 16 15 15 15 16 17 20 24 29 35 40 44 47 50 53 55 56 57 57 57 55 55 56 56 55 54 53 53 51 49 47
21 20 18 17 17 16 16 15 14 14 14 14 15 18 21 26 31 37 41 44 48 52 54 56 57 56 55 55 56 57 57 56 55 54 52 51 49 48
Wind_Direction
283 280 276 271 267 262 259 255 252 248 246 245 241 236 234 234 234 233 231 230 229 228 228 227 226 226 226 225 225 225 227 229 230 232 233 235 239 242
283 280 276 272 267 263 259 255 252 248 245 243 241 237 234 234 233 233 231 230 229 228 228 227 226 224 225 226 226 226 228 228 230 232 234 236 238 240
284 280 276 272 268 263 259 255 252 247 243 241 241 238 236 234 233 232 231 230 228 227 227 226 225 224 225 226 227 227 227 228 230 232 234 235 237 239
285 280 276 273 269 264 259 255 251 247 243 240 239 239 236 234 233 232 231 230 229 228 226 225 224 224 224 225 225 226 227 227 229 231 233 235 237 238
286 281 277 273 269 265 260 255 251 247 243 240 237 238 236 234 233 230 230 229 230 229 227 224 223 223 223 224 225 226 225 226 228 230 232 234 235 236
287 282 278 274 270 265 261 256 252 248 244 240 237 236 236 235 233 231 230 229 229 229 227 225 223 221 221 222 222 222 223 224 226 228 231 232 232 233
288 284 279 275 271 266 262 257 252 248 245 241 238 236 235 234 233 232 231 229 229 229 228 226 224 221 220 219 219 220 221 222 224 226 228 229 230 230
290 285 281 276 272 267 262 258 253 249 245 242 239 237 235 234 233 232 232 231 230 228 228 226 224 222 221 220 220 220 219 219 221 223 224 226 226 228
291 287 283 279 273 268 263 258 254 250 246 242 239 236 235 233 232 232 231 230 230 229 227 226 225 223 222 221 219 218 217 217 219 220 221 222 223 225
292 289 285 281 276 270 265 261 256 251 247 243 239 236 234 232 231 231 230 229 229 228 228 226 226 225 222 220 218 217 215 216 217 218 219 219 221 222
293 290 287 283 278 273 268 263 259 253 248 244 240 237 234 232 231 229 229 228 227 227 227 226 225 225 224 222 219 215 214 214 214 215 216 217 218 219
293 291 288 284 279 274 270 266 261 256 251 246 241 237 234 232 231 230 228 227 226 226 225 225 223 223 223 222 220 215 212 212 212 213 214 215 216 216
294 292 289 285 281 276 271 267 262 258 254 247 241 237 234 231 230 229 227 226 224 223 223 224 222 222 220 220 219 217 214 212 212 212 212 213 214 214
295 292 289 286 283 279 273 268 264 259 253 248 241 237 233 231 229 227 226 225 223 221 220 221 222 222 221 221 220 217 214 212 212 211 211 212 212 213
296 293 290 286 283 280 276 270 265 259 252 247 242 238 234 231 229 226 225 224 222 222 220 220 220 220 221 221 220 217 214 211 210 210 210 211 211 212
298 296 292 287 284 282 279 274 268 261 253 247 242 239 235 231 228 226 224 222 221 221 220 218 217 218 218 219 218 216 214 211 210 209 210 211 211 213
299 298 294 289 285 283 281 277 270 262 256 250 244 239 235 231 227 225 223 221 220 219 218 219 218 217 215 216 217 215 213 210 209 209 210 211 211 213
300 299 297 290 285 283 282 279 272 264 258 253 246 239 235 230 226 223 221 219 219 218 217 217 218 217 215 216 216 214 212 210 209 209 211 211 211 212
302 300 298 292 284 282 281 279 274 268 262 255 247 239 234 229 224 221 219 218 217 216 216 215 217 217 216 216 215 214 213 210 210 210 211 212 212 213
304 301 298 294 286 282 280 278 275 270 264 256 246 238 232 226 222 219 217 216 215 214 214 215 215 214 215 214 214 215 213 211 211 211 212 212 214 215
306 303 299 294 287 283 282 277 273 267 261 257 245 236 227 222 218 216 215 215 213 213 212 213 213 213 213 213 212 212 213 210 211 211 212 213 214 216
310 306 300 294 288 283 280 277 271 263 257 252 243 234 225 218 214 213 212 213 212 211 211 211 212 213 212 212 210 211 212 211 211 211 212 214 216 217
308 305 300 292 286 281 277 275 270 262 253 245 241 230 222 215 211 210 210 209 209 208 209 210 211 212 212 212 211 211 212 212 212 212 213 214 217 218
Height
5758 5756 5754 5753 5753 5753 5754 5756 5758 5760 5763 5765 5767 5770 5773 5778 5782 5787 5792 5797 5802 5808 5814 5820 5826 5832 5839 5845 5850 5856 5861 5866 5870 5874 5878 5882 5885 5888
5746 5744 5742 5741 5740 5741 5742 5743 5746 5749 5751 5754 5756 5759 5762 5767 5772 5777 5782 5787 5792 5798 5804 5810 5816 5823 5830 5836 5842 5848 5853 5858 5863 5868 5872 5875 5879 5882
5734 5732 5730 5729 5728 5728 5729 5731 5733 5736 5739 5743 5745 5749 5752 5757 5762 5767 5771 5776 5782 5787 5793 5800 5806 5813 5820 5827 5833 5839 5845 5851 5856 5861 5865 5869 5872 5876
5723 5720 5718 5717 5716 5716 5716 5718 5720 5723 5727 5731 5734 5738 5742 5747 5752 5756 5761 5766 5772 5777 5783 5789 5796 5803 5810 5817 5824 5830 5836 5842 5848 5853 5858 5862 5866 5869
5711 5708 5706 5705 5704 5704 5704 5705 5708 5711 5714 5719 5723 5727 5731 5736 5741 5746 5751 5756 5761 5767 5772 5779 5786 5793 5800 5807 5814 5821 5827 5834 5840 5845 5850 5854 5858 5862
5699 5697 5695 5693 5692 5692 5692 5693 5695 5698 5702 5706 5710 5715 5720 5725 5730 5735 5741 5746 5752 5757 5762 5768 5775 5782 5789 5797 5804 5811 5818 5824 5830 5836 5842 5847 5851 5855
5687 5685 5683 5682 5680 5680 5680 5681 5683 5686 5689 5693 5698 5703 5708 5714 5719 5725 5730 5736 5741 5747 5753 5759 5765 5772 5779 5786 5794 5801 5808 5815 5821 5828 5833 5839 5844 5848
5676 5673 5671 5670 5669 5668 5669 5669 5671 5674 5677 5681 5686 5691 5696 5702 5708 5714 5719 5726 5732 5738 5743 5749 5755 5762 5769 5777 5784 5791 5798 5805 5812 5819 5825 5831 5836 5841
5665 5662 5660 5658 5657 5656 5656 5657 5659 5661 5664 5668 5673 5678 5684 5690 5697 5703 5708 5714 5721 5727 5733 5739 5745 5752 5758 5766 5773 5780 5788 5796 5803 5810 5817 5823 5829 5834
5654 5651 5648 5646 5645 5644 5645 5645 5647 5649 5651 5655 5661 5665 5670 5676 5683 5690 5697 5704 5711 5717 5723 5730 5736 5742 5749 5756 5763 5770 5778 5786 5794 5801 5808 5815 5821 5827
5644 5640 5638 5636 5634 5633 5633 5633 5634 5635 5638 5642 5647 5651 5657 5664 5670 5678 5686 5693 5701 5707 5714 5720 5726 5732 5739 5746 5753 5760 5768 5776 5785 5793 5800 5807 5814 5819
5633 5630 5627 5625 5623 5621 5621 5621 5622 5623 5625 5628 5633 5638 5644 5650 5658 5665 5674 5681 5690 5697 5704 5711 5717 5723 5730 5737 5744 5751 5759 5767 5776 5784 5792 5799 5806 5813
5623 5620 5617 5614 5612 5610 5609 5609 5609 5610 5612 5615 5619 5624 5630 5637 5645 5653 5661 5670 5678 5687 5694 5701 5708 5714 5721 5728 5735 5742 5750 5759 5768 5776 5784 5792 5799 5806
5613 5610 5606 5604 5601 5599 5598 5597 5597 5598 5599 5602 5606 5611 5617 5624 5632 5639 5648 5657 5666 5675 5683 5690 5697 5705 5712 5719 5726 5734 5742 5750 5759 5768 5776 5784 5792 5799
5603 5600 5596 5593 5591 5589 5587 5586 5585 5585 5587 5590 5593 5598 5604 5611 5618 5626 5635 5643 5653 5662 5671 5679 5688 5695 5703 5710 5718 5725 5733 5742 5751 5760 5769 5777 5784 5791
5594 5590 5586 5583 5581 5579 5577 5575 5574 5574 5576 5578 5581 5585 5591 5598 5605 5613 5622 5630 5640 5650 5660 5669 5677 5685 5693 5701 5709 5717 5725 5734 5743 5753 5761 5770 5777 5784
5585 5581 5577 5574 5572 5569 5567 5565 5564 5564 5565 5567 5569 5573 5578 5585 5593 5601 5609 5618 5628 5638 5649 5658 5667 5675 5684 5691 5700 5708 5717 5726 5735 5745 5754 5762 5770 5777
5575 5572 5568 5566 5563 5561 5559 5557 5556 5555 5555 5556 5558 5562 5566 5572 5580 5588 5596 5606 5617 5627 5637 5647 5656 5666 5674 5683 5691 5700 5709 5718 5728 5737 5746 5754 5762 5770
5567 5564 5561 5558 5555 5553 5552 5550 5548 5547 5546 5547 5548 5551 5555 5561 5567 5575 5584 5594 5605 5615 5626 5636 5645 5656 5666 5674 5683 5692 5702 5711 5720 5729 5738 5747 5755 5762
5560 5556 5553 5550 5548 5546 5544 5543 5541 5540 5539 5539 5540 5542 5545 5550 5557 5564 5574 5583 5594 5604 5615 5625 5636 5647 5657 5666 5675 5684 5693 5702 5712 5721 5730 5738 5746 5754
5552 5549 5546 5543 5541 5539 5538 5536 5535 5534 5533 5532 5533 5534 5537 5541 5548 5555 5564 5573 5583 5594 5605 5617 5627 5636 5645 5655 5664 5674 5684 5694 5703 5713 5722 5730 5738 5746
5546 5542 5539 5537 5535 5534 5532 5531 5529 5528 5528 5527 5527 5528 5531 5535 5540 5547 5555 5565 5575 5586 5596 5606 5615 5625 5635 5646 5656 5665 5675 5685 5694 5703 5713 5722 5729 5738
5539 5536 5533 5531 5529 5528 5526 5525 5525 5524 5523 5523 5524 5524 5526 5530 5535 5541 5548 5557 5566 5576 5586 5596 5606 5616 5626 5636 5646 5656 5666 5675 5685 5695 5704 5713 5721 5729